EHI
0 0 0 0 0 0 0 0 0 0 0 0 0 0 0 0 0 0 0 0 0 0 0 0 0 0 0 0 0 0 0 0 0 0 0 0 0 0 0 0 0 0 0 0
0 0 0 0 0 0 0 0 0 0 0 0 0 0 0 0 0 0 0 0 0 0 0 0 0 0 0 0 0 0 0 0 0 0 0 0 0 0 0 0 0 0 0 0
0 0 0 0 0 0 0 0 0 0 0 0 0 0 0 0 0 0 0 0 0 0 0 0 0 0 0 0 0 0 0 0 0 0 0 0 0 0 0 0 0 0 0 0
0 0 0 0 0 0 0 0 0 0 0 0 0 0 0 0 0 0 0 0 0 0 0 0 0 0 0 0 0 0 0 0 0 0 0 0 0 0 0 0 0 0 0 0
0 0 0 0 0 0 0 0 0 0 0 0 0 0 0 0 0 0 0 0 0 0 0 0 0 0 0 0 0 0 0 0 0 0 0 0 0 0 0 0 0 0 0 0
0 0 0 0 0 0 0 0 0 0 0 0 0 0 0 0 0 0 0 0 0 0 0 0 0 0 0 0 0 0 0 0 0 0 0 0 0 0 0 0 0 0 0 0
0 0 0 0 0 0 0 0 0 0 0 0 0 0 0 0 0 0 0 0 0 0 0 1 1 0 0 0 0 0 0 0 1 1 0 0 0 0 0 0 0 0 0 0
0 0 0 0 0 0 0 0 0 0 0 0 0 0 0 0 0 0 0 0 0 0 0 1 1 0 0 0 1 1 0 0 1 2 1 0 0 0 0 0 0 0 0 0
0 0 0 0 0 0 0 0 0 0 0 0 0 0 0 0 0 0 0 0 0 0 0 0 0 0 0 0 1 1 0 0 1 2 2 1 0 0 0 0 0 0 0 0
0 0 0 0 0 0 0 0 0 0 0 0 0 0 0 0 0 0 0 0 0 0 0 0 0 0 0 0 0 0 0 1 2 3 2 1 0 0 0 0 0 0 0 0
0 0 0 0 0 0 0 0 0 0 0 0 0 0 0 0 0 0 0 0 0 0 0 0 0 0 0 0 0 0 0 1 2 2 1 0 0 0 0 0 0 0 0 0
0 0 0 0 0 0 0 0 0 0 0 0 0 0 0 0 0 0 0 0 0 0 0 0 0 0 0 0 0 0 0 1 2 2 1 0 0 0 0 0 0 0 0 0
0 0 0 0 0 0 0 0 0 0 0 0 0 0 0 0 0 0 0 0 0 0 0 0 0 0 0 0 1 1 1 1 2 3 2 1 0 0 0 0 0 0 0 0
0 0 0 0 0 0 0 0 0 0 0 0 0 0 0 0 0 0 0 0 0 0 0 0 0 0 0 1 2 2 2 3 3 3 3 2 1 0 0 0 0 0 0 0
0 0 0 0 0 0 0 0 0 0 0 0 0 0 0 0 0 0 0 0 0 0 0 0 0 0 1 2 3 3 3 3 3 3 3 2 1 0 0 0 0 0 0 0
0 0 0 0 0 0 0 0 0 0 0 0 0 0 0 0 0 0 0 0 0 0 0 0 0 0 1 2 3 3 3 3 3 3 2 1 0 0 0 0 0 0 0 0
0 0 0 0 0 0 0 0 0 0 0 0 0 0 0 0 0 0 0 0 0 0 0 0 0 0 1 1 2 3 3 3 2 1 1 0 0 0 1 1 1 0 0 0
0 0 0 0 0 0 0 0 0 0 0 0 0 0 0 0 0 0 0 0 0 0 0 0 0 0 0 0 1 1 2 1 1 1 0 0 0 1 2 2 1 0 0 0
0 0 0 0 0 0 0 0 0 0 0 0 0 0 0 0 0 0 0 0 0 0 0 0 0 0 0 0 0 0 0 0 0 1 0 0 1 2 2 1 0 0 0 0
0 0 0 0 0 0 0 0 0 0 0 0 0 0 0 0 0 0 0 0 0 0 0 0 0 0 0 0 0 0 0 0 0 0 0 1 1 3 2 1 0 0 0 0
0 0 0 0 0 0 0 0 0 0 0 0 0 0 0 0 0 0 0 0 0 0 0 0 0 0 0 0 0 0 0 0 0 0 1 2 2 2 2 1 0 0 0 0
0 0 0 0 0 0 0 0 0 0 0 0 0 0 0 0 0 0 0 0 0 0 0 0 0 0 0 0 0 0 0 0 0 0 2 3 3 2 1 0 0 0 0 0
0 0 0 0 0 0 0 0 0 0 0 0 0 0 0 0 0 0 0 0 0 0 0 0 0 0 0 0 0 0 0 0 0 0 1 2 2 1 0 0 0 0 0 0
0 0 0 0 0 0 0 0 0 0 0 0 0 0 0 0 0 0 0 0 0 0 0 0 0 0 0 0 0 0 0 0 0 0 0 1 1 1 0 0 0 0 0 0
0 0 0 0 0 0 0 0 0 0 0 0 0 0 0 0 0 0 0 0 0 0 0 0 0 0 0 0 0 0 0 0 0 0 0 0 0 0 0 0 0 0 0 0
0 0 0 0 0 0 0 0 0 0 0 0 0 0 0 0 0 0 0 0 0 0 0 0 0 0 0 0 0 0 0 0 0 0 0 0 0 0 0 0 0 0 0 0
Wind_Speed
3 4 3 3 3 2 4 5 4 3 3 4 5 5 5 6 7 8 8 8 8 8 8 8 8 8 8 8 7 7 7 6 5 3 3 2 3 2 2 3 3 3 2 2
5 4 3 3 4 5 5 5 5 4 4 3 4 5 5 6 8 8 8 8 8 9 9 9 9 9 9 8 8 8 7 6 6 3 3 2 2 2 3 2 3 3 3 3
4 3 4 6 6 6 5 5 4 4 4 4 3 6 7 7 8 8 8 7 8 9 10 11 10 10 10 9 8 7 7 7 6 6 4 3 3 2 2 3 2 3 3 3
3 3 5 6 5 5 4 3 4 5 5 4 4 3 6 8 9 9 9 8 8 9 9 10 10 11 10 9 8 8 7 7 7 7 5 5 3 2 2 2 2 3 3 3
4 4 5 5 3 4 2 3 3 4 4 3 5 5 3 8 9 10 10 9 9 9 9 10 10 10 9 9 8 7 8 7 7 6 5 4 3 3 2 2 3 3 3 3
3 2 3 2 2 3 5 6 4 4 5 5 4 5 2 6 7 8 9 9 10 10 10 9 9 9 9 8 8 7 8 7 6 6 6 5 5 4 4 3 3 2 2 2
6 5 3 3 6 6 6 5 4 5 5 2 3 4 2 3 4 6 7 8 9 10 10 10 10 10 10 10 9 9 9 8 8 7 7 6 6 5 4 3 3 2 2 2
5 6 5 4 4 4 5 6 3 2 2 2 4 4 1 2 2 4 5 6 8 9 10 10 11 10 10 11 10 9 10 9 8 8 7 6 6 4 3 3 3 2 2 2
4 4 5 3 3 4 5 4 3 4 2 2 3 3 2 3 4 5 5 6 8 9 10 10 10 10 11 11 11 10 10 10 9 8 7 6 6 5 4 4 3 2 2 2
3 4 5 5 4 3 2 2 3 4 3 2 2 2 2 5 4 5 6 6 7 8 9 9 9 10 10 10 10 10 10 10 10 9 7 6 6 6 5 4 4 3 3 3
4 4 6 7 7 6 6 6 5 4 4 3 1 2 2 1 2 2 3 4 6 7 8 9 9 9 9 10 10 10 10 10 10 9 8 8 7 6 5 4 4 4 4 4
5 4 4 5 3 3 6 6 6 4 3 3 2 2 3 0 1 1 2 3 5 7 7 8 9 9 9 10 10 10 10 11 10 9 8 7 7 7 6 5 5 4 4 4
5 6 5 6 6 6 6 6 7 6 4 4 3 1 4 2 1 1 2 3 4 6 7 8 8 9 9 10 10 10 10 10 10 10 9 8 8 7 6 6 5 4 4 4
5 5 5 3 1 4 7 7 8 9 6 5 5 4 1 1 1 1 2 3 4 6 7 8 8 8 9 9 10 10 10 10 10 10 9 9 8 7 6 6 5 5 4 5
5 5 5 4 2 4 6 8 10 11 9 8 6 6 5 3 2 1 2 3 5 6 7 8 8 8 9 9 10 10 10 10 11 11 10 9 8 7 6 6 5 5 4 4
5 6 6 6 5 5 6 8 9 10 10 10 9 8 4 2 1 2 3 4 6 6 7 7 8 9 10 10 10 10 10 10 10 11 10 9 8 7 6 6 6 6 5 5
5 5 6 5 5 6 8 7 8 8 8 9 9 6 2 2 2 2 3 5 6 6 7 7 8 9 9 10 10 10 10 10 10 11 10 10 9 8 7 7 7 6 6 6
6 6 4 4 5 8 1 1 4 7 7 8 7 5 3 3 2 2 3 4 5 6 6 7 7 7 8 9 9 9 10 10 10 10 10 10 9 9 8 7 7 7 6 6
6 6 5 5 6 5 3 3 4 5 5 5 6 5 4 3 3 2 2 3 4 5 6 6 6 6 7 8 9 9 10 10 10 10 10 10 10 9 8 8 8 7 6 6
6 7 6 6 7 6 1 2 1 5 4 2 3 3 4 5 4 1 1 3 3 3 4 4 5 6 6 7 8 9 10 10 10 10 9 9 9 9 9 8 7 6 6 6
8 7 9 9 7 4 1 1 4 6 1 2 1 2 4 4 1 2 1 2 2 3 3 4 5 5 6 7 8 9 9 9 9 9 8 8 9 8 8 7 6 6 6 6
7 7 8 7 8 4 3 4 4 2 2 1 1 2 3 2 2 2 2 3 3 3 3 4 5 5 5 7 8 8 7 6 7 7 8 8 8 7 7 7 6 6 6 6
6 5 3 4 3 2 2 2 2 2 1 0 1 1 2 3 3 3 3 3 3 4 4 4 5 6 6 6 6 7 6 6 7 8 8 7 8 6 7 7 7 6 6 5
5 4 5 5 4 3 2 2 1 1 1 1 1 3 3 4 4 4 3 3 4 4 4 4 5 6 5 5 5 5 6 7 8 8 8 7 7 7 6 5 5 5 5 5
4 6 6 6 4 3 4 3 2 1 1 2 2 3 3 4 4 4 4 4 4 4 4 5 5 5 5 5 5 5 6 7 8 8 8 7 6 6 6 5 3 4 4 3
6 7 7 5 5 4 3 2 2 2 2 2 3 4 3 4 4 4 4 4 4 5 5 5 5 5 5 5 5 5 6 7 7 7 7 6 5 5 5 5 5 3 2 3
Wind_Direction
171 187 171 165 186 179 173 175 165 151 147 190 198 196 181 178 196 196 190 188 185 184 174 172 174 173 172 171 167 160 162 155 149 145 152 144 126 106 85 70 64 60 54 58
176 174 152 152 162 172 175 175 162 146 153 203 206 219 207 196 207 208 202 196 189 185 177 175 180 177 178 174 173 168 168 166 162 154 146 134 118 98 76 72 66 51 59 58
178 124 154 169 171 180 185 193 176 161 154 181 216 217 199 196 206 207 211 209 198 194 189 181 184 182 181 179 175 176 174 168 166 159 149 143 134 143 128 104 79 52 54 63
166 147 183 189 189 205 180 179 190 192 202 181 223 234 192 192 200 206 205 204 202 196 195 186 186 185 185 182 178 180 175 169 167 167 168 164 162 137 107 95 93 86 67 65
152 172 191 195 191 217 138 150 192 217 227 219 212 245 181 182 204 206 204 203 203 196 195 189 187 186 183 177 177 177 172 170 169 171 164 174 160 131 118 114 108 95 80 68
140 176 223 199 175 191 156 163 171 214 230 227 205 235 198 182 202 198 195 199 200 196 194 189 181 177 172 167 171 172 172 167 168 174 173 173 157 151 143 135 119 111 100 83
166 168 172 190 175 173 202 207 200 201 207 190 146 238 228 147 193 203 195 196 196 194 190 186 179 177 172 170 170 173 173 170 173 178 176 170 167 166 162 153 133 125 111 96
188 170 175 197 216 197 208 239 254 253 227 142 181 230 122 119 194 202 199 195 192 192 191 186 182 181 177 174 172 176 176 174 173 179 176 173 166 170 155 154 144 133 109 95
203 157 156 190 220 224 201 217 294 296 270 241 193 190 163 162 173 176 179 184 191 194 190 187 183 183 181 178 177 178 178 177 177 179 176 173 167 166 159 161 149 131 123 110
221 182 161 163 186 195 246 195 218 241 246 223 201 205 171 159 156 156 170 185 187 184 184 185 184 184 183 181 178 177 180 179 178 179 176 169 170 166 166 163 153 149 140 128
220 205 165 181 208 194 185 197 224 239 273 283 257 92 64 145 172 177 167 178 185 183 183 182 183 183 180 178 176 177 180 179 178 179 176 172 171 171 171 165 159 160 152 148
213 233 192 183 173 237 223 221 226 237 224 259 281 81 94 129 163 191 190 184 184 183 181 179 176 175 176 179 179 181 180 178 178 179 176 175 168 172 176 169 166 164 156 153
190 226 205 177 175 189 211 216 228 246 250 244 250 120 108 101 120 179 203 187 176 176 175 173 172 175 177 179 181 182 180 178 177 177 176 177 174 174 175 170 164 166 162 158
222 233 241 235 207 195 205 208 219 229 238 243 246 271 261 313 307 241 208 183 170 176 176 176 177 179 178 181 182 181 179 176 175 174 179 182 179 175 175 168 167 171 165 163
229 241 231 250 257 234 229 221 216 229 244 257 265 274 287 301 285 243 195 180 174 179 181 182 184 181 179 181 182 180 180 177 177 176 181 182 178 175 173 167 170 167 161 164
228 239 231 229 220 229 244 239 228 231 240 245 258 270 281 283 237 211 192 185 189 189 189 187 188 185 185 184 183 180 179 181 180 180 180 175 175 172 173 170 169 163 161 159
212 233 236 236 221 235 243 235 228 226 231 240 250 256 249 240 229 228 213 200 200 197 193 193 192 191 192 189 184 182 180 180 184 182 176 175 174 173 175 170 167 164 165 159
222 224 238 244 228 241 230 133 231 238 245 242 244 247 240 251 246 241 231 218 209 202 198 197 195 190 192 189 184 179 176 180 183 182 177 174 175 174 172 171 169 172 170 161
235 222 225 236 241 252 218 202 210 228 250 242 228 230 227 222 219 202 206 228 217 207 204 199 196 186 184 184 181 177 177 180 181 182 181 177 176 174 173 174 174 172 170 166
207 223 232 231 241 242 187 121 219 241 234 173 213 225 215 208 226 170 147 204 212 201 194 185 178 173 173 177 175 178 179 181 184 183 182 177 175 175 178 178 176 169 169 170
189 204 224 234 242 247 52 120 196 224 96 108 187 200 194 207 266 71 115 159 175 172 167 163 164 166 168 169 173 179 181 187 184 177 175 173 173 176 175 171 170 169 168 168
209 206 212 221 231 223 129 176 216 352 38 112 159 177 180 176 124 113 117 126 138 138 142 151 154 154 157 165 173 176 179 176 166 165 169 170 170 168 166 164 167 169 167 171
220 228 221 226 242 27 155 229 317 341 343 32 153 154 157 152 145 140 133 126 128 129 133 140 143 141 147 159 172 172 165 161 160 162 165 165 163 162 167 165 165 167 173 180
198 210 217 221 224 234 237 233 243 272 313 13 148 150 153 147 137 133 130 127 124 123 126 132 135 138 145 153 163 164 155 159 160 161 162 163 162 161 164 166 170 172 179 184
203 195 212 223 216 217 223 226 221 211 177 143 140 143 149 141 131 129 130 123 121 121 125 132 135 141 148 152 154 154 154 158 159 158 156 159 158 157 162 162 167 180 175 180
199 208 216 222 208 216 201 192 182 184 172 154 143 134 132 137 130 127 122 122 126 130 134 135 134 141 149 152 152 154 158 161 161 156 156 155 154 154 158 159 150 96 96 109